User: anonymous   Login
Location: Caltech
(34.1382°N, 118.1253°W)
Time: 09:43:05
(UTC-07:00)
Language:

PAYLOAD A - Orbit

View from above orbital plane
View from above orbital plane
View from above satellite
View from above satellite

Ground track
Ground track

The orbit data is extracted from the following two-line orbital elements,

1 27840U 03031A   17087.91766237 -.00000018 +00000-0 +78373-5 0  9995
2 27840 098.2038 088.8879 0098306 001.7856 358.3664 14.38877343721670
Epoch (UTC): 28 March 2017 22:01:26
Eccentricity: 0.0098306
inclination: 98.2038°
perigee height: 692 km
apogee height: 832 km
right ascension of ascending node: 88.8879°
argument of perigee: 1.7856°
revolutions per day: 14.38877343
mean anomaly at epoch: 358.3664°
orbit number at epoch: 72167

The dashed part of the orbit path shows where the satellite is in the earth's shadow,  

DLR